Temperature
12 13 13 15 16 17 17 17 18 18 18 18 18 19 20 20 19 19 20 20 19 19 19 19 19 19 19 18 18 17 17 16 15 15 14 14 13 13 13 13 12 12 11 11
11 12 15 16 16 16 16 16 17 17 17 17 18 19 20 20 19 19 19 20 19 19 19 19 19 19 19 19 18 18 17 17 16 16 15 15 14 14 13 13 12 12 11 11
12 14 15 14 14 14 15 16 16 17 16 16 17 18 19 20 19 18 18 19 19 19 19 19 19 19 19 19 19 18 18 17 17 16 15 14 13 13 12 12 13 12 12 11
12 13 13 13 14 14 14 16 16 16 16 16 16 17 19 20 19 19 19 19 19 19 18 19 19 19 19 19 19 18 18 17 17 16 15 14 14 14 14 14 13 13 12 11
12 13 13 13 14 14 14 15 15 15 15 15 16 16 19 19 19 20 20 19 19 18 18 18 18 19 19 19 19 19 18 17 17 16 15 15 14 14 13 13 13 12 12 11
12 12 13 14 14 14 14 14 13 14 14 14 16 16 18 19 20 20 20 20 19 18 18 18 18 18 18 18 18 18 18 18 17 16 15 15 14 14 13 13 13 12 12 12
10 11 12 13 13 13 13 13 12 12 12 14 16 16 18 20 20 20 20 20 19 18 17 17 18 18 18 18 18 18 18 17 17 16 16 15 15 14 13 13 13 12 12 12
10 11 11 12 13 13 13 13 13 14 15 16 15 15 19 19 19 18 18 18 17 17 17 17 18 18 18 18 18 18 18 17 17 17 16 15 15 14 13 13 13 12 12 12
10 11 12 12 13 13 13 13 14 14 14 15 15 16 18 18 17 17 17 16 16 16 16 17 17 17 18 18 18 18 18 17 17 17 16 15 14 14 13 13 12 12 12 12
10 10 11 11 11 12 13 13 13 12 13 14 16 17 18 18 18 18 18 17 17 16 16 16 17 17 17 17 17 17 17 17 17 16 16 15 14 14 13 13 12 12 12 11
9 9 9 10 11 11 12 12 12 13 14 15 16 17 18 19 19 19 18 18 17 16 16 16 16 17 17 17 17 17 17 16 16 16 15 15 14 13 13 12 12 12 11 11
7 8 9 10 11 12 13 12 12 12 13 14 16 18 18 17 18 18 18 17 16 15 15 16 16 16 16 16 16 16 16 16 16 15 15 14 14 13 13 12 12 11 11 10
6 7 8 9 9 9 10 11 12 13 13 14 15 17 17 16 16 16 16 16 15 15 15 15 16 16 16 16 16 16 16 16 15 15 15 14 14 13 13 12 12 11 11 10
6 6 8 9 10 9 9 10 11 12 12 13 15 17 17 17 16 16 15 15 15 14 14 15 15 16 16 16 16 16 15 15 15 15 14 14 14 13 13 12 11 11 10 10
5 6 7 8 9 9 9 10 11 11 13 14 15 16 17 18 17 17 16 15 14 14 14 14 15 15 16 16 15 15 15 15 15 14 14 14 13 13 12 12 11 11 10 10
5 5 6 7 8 9 9 10 11 11 13 14 14 15 17 17 16 16 15 14 14 14 14 14 15 15 15 16 15 15 15 15 14 14 14 14 13 13 12 12 11 10 10 9
4 4 5 7 8 8 9 11 11 12 13 14 14 15 16 15 15 16 15 15 15 15 14 14 15 15 16 16 15 15 15 15 14 14 14 13 13 12 12 11 11 10 10 9
4 4 5 6 7 7 11 12 13 12 13 14 14 15 15 16 15 15 15 15 15 15 15 15 15 15 15 15 15 15 15 14 14 14 13 13 13 12 12 11 10 10 9 9
5 5 5 6 7 9 11 11 11 11 12 13 13 14 14 14 14 15 14 15 15 15 15 15 15 15 15 15 15 15 14 14 14 14 13 13 12 12 11 11 10 9 9 8
5 5 5 5 6 8 11 11 11 11 11 13 13 13 13 13 13 15 15 14 14 14 15 15 15 15 15 15 15 14 14 14 14 14 13 13 12 11 11 10 10 9 8 8
4 4 4 5 6 9 10 9 10 10 11 12 12 12 13 12 13 14 14 14 14 14 14 15 15 15 15 15 14 14 14 14 14 13 13 12 11 11 10 10 9 8 8 7
5 5 5 5 6 8 8 8 9 10 10 10 11 11 11 12 12 12 12 13 13 13 14 14 14 14 14 14 14 14 14 14 13 13 12 11 11 10 10 9 8 8 7 7
5 6 6 6 8 9 8 8 8 9 9 9 10 10 10 10 11 11 11 11 12 13 13 13 14 14 14 14 14 14 14 13 13 12 12 11 10 10 9 8 8 7 7 6
6 6 6 6 7 8 8 8 8 8 8 9 9 9 9 10 10 10 10 11 11 12 12 13 13 13 13 13 13 13 13 13 12 11 11 10 10 9 8 8 7 7 7 6
6 5 5 6 7 7 8 8 8 8 8 8 9 9 9 9 9 10 10 10 11 11 12 12 12 13 13 13 13 12 12 12 11 11 10 9 9 8 8 7 7 7 6 6
5 5 6 6 7 7 8 7 7 7 7 8 8 8 8 8 9 9 9 10 10 11 11 11 12 12 12 12 12 12 11 11 11 10 9 9 8 8 7 7 6 5 5 5
Wind_Speed
12 14 20 24 25 20 16 18 20 16 11 13 19 21 19 16 14 15 16 15 15 15 14 12 12 13 14 16 18 19 20 20 17 14 14 13 13 12 11 12 15 16 15 15
12 22 25 20 20 20 19 18 18 13 10 11 16 21 19 19 19 17 17 17 16 15 13 12 11 12 14 16 18 19 20 20 20 16 15 13 13 11 11 11 13 16 16 16
24 17 18 19 20 21 22 22 19 13 8 9 11 17 20 19 18 18 18 18 17 15 15 13 13 13 13 15 17 17 20 20 21 19 13 11 10 9 10 12 11 14 16 16
21 19 17 20 22 22 22 20 18 15 12 10 10 12 17 17 18 19 20 19 18 17 15 14 13 13 14 14 14 16 18 19 19 19 17 17 14 13 14 12 12 13 15 15
15 19 21 24 24 22 16 13 15 15 14 13 12 12 13 13 18 21 20 19 18 17 16 15 14 13 12 12 13 14 16 17 19 19 19 19 16 14 12 12 13 13 13 14
16 12 16 20 19 18 11 9 7 8 10 15 19 16 14 14 19 18 18 17 16 15 14 13 12 11 10 10 11 13 15 16 17 19 19 19 19 16 14 14 13 12 10 11
14 14 12 12 14 16 15 12 8 10 11 13 14 15 15 13 14 16 16 16 15 14 13 12 12 11 11 12 12 13 15 15 17 18 18 19 18 17 16 15 14 13 10 10
16 16 17 13 17 16 23 20 13 10 11 11 11 16 13 11 11 12 13 12 12 12 12 11 11 11 11 12 13 14 15 15 16 17 17 16 16 13 12 14 12 13 11 11
12 12 13 14 14 17 18 20 15 8 6 9 10 11 12 10 12 13 13 12 13 12 11 10 10 10 10 11 12 14 14 14 15 15 15 15 15 14 13 13 13 11 10 9
6 7 9 11 9 13 15 14 10 11 9 11 12 15 11 13 17 16 14 14 13 11 10 9 8 8 8 9 10 12 13 13 14 14 13 11 13 14 13 12 12 12 11 10
6 6 8 11 16 19 15 16 12 11 10 10 11 10 8 12 13 15 15 14 12 11 10 8 7 7 8 8 9 11 12 12 12 13 13 13 12 12 12 11 12 11 10 11
4 4 7 12 10 14 17 17 17 14 11 12 11 8 4 7 8 9 11 10 9 9 8 7 7 8 8 9 9 10 11 12 12 12 12 12 12 12 12 12 11 11 11 10
2 3 5 6 7 9 14 16 19 15 11 12 14 10 4 4 6 7 8 7 7 7 7 7 7 8 9 9 9 10 10 11 11 11 12 12 12 12 12 11 11 11 10 10
3 5 8 9 6 8 13 17 20 19 14 16 19 17 8 7 6 6 6 7 7 7 8 8 8 8 8 9 9 10 10 10 11 11 12 12 12 12 11 11 10 10 10 10
2 6 9 12 8 9 13 17 21 24 23 19 20 20 17 11 8 7 7 7 7 8 8 9 9 9 9 9 9 9 10 10 11 11 11 11 11 10 10 10 10 10 9 9
2 4 7 10 8 10 13 18 22 26 26 26 22 21 18 13 9 8 8 8 9 9 10 10 10 10 10 10 10 10 10 10 11 11 11 10 11 11 10 10 10 9 9 9
4 4 5 8 7 6 13 20 23 23 25 25 26 23 15 13 13 14 13 13 12 11 10 11 12 12 11 11 11 11 11 10 11 11 11 11 11 11 10 10 10 10 10 9
9 8 5 5 5 11 10 9 18 22 24 23 22 18 17 18 16 15 14 14 13 12 11 11 11 11 10 9 9 9 10 10 11 11 11 11 11 11 11 11 11 10 9 9
14 10 5 5 8 10 9 8 13 18 19 19 21 19 17 12 11 15 15 15 15 14 12 11 11 10 10 10 10 10 10 10 11 11 12 12 12 12 12 12 11 10 9 8
13 12 8 7 7 9 7 5 7 11 15 12 15 17 16 12 14 16 13 14 15 13 11 9 9 9 10 10 11 11 11 11 12 12 12 12 12 12 12 12 11 9 8 8
10 10 13 12 9 9 5 2 7 11 7 4 10 14 15 16 17 11 8 11 12 12 10 9 9 10 10 11 12 12 12 12 11 11 11 11 12 12 11 11 10 9 9 8
9 8 10 10 10 10 1 4 7 5 4 3 5 8 12 15 15 12 9 9 9 9 9 9 9 9 9 11 12 12 12 10 10 11 11 11 11 10 9 11 10 10 10 9
9 8 6 9 9 4 4 6 6 5 6 6 6 8 9 11 12 12 11 11 10 9 9 9 9 9 9 11 12 12 11 11 12 12 12 11 11 10 10 11 11 10 9 7
7 7 7 8 11 11 11 11 9 8 9 10 9 9 9 10 10 11 10 9 9 9 9 9 10 10 10 10 10 10 11 13 13 13 12 12 11 10 10 8 8 8 8 8
10 6 9 13 13 12 12 11 11 11 11 11 11 10 10 11 11 10 9 9 8 8 8 9 10 11 11 10 10 10 12 14 14 13 12 11 10 10 9 7 6 6 6 6
14 14 13 13 11 10 13 13 13 13 13 13 13 13 11 10 11 10 9 8 7 8 8 9 10 10 11 11 11 11 12 14 15 13 12 10 10 9 8 8 6 6 5 7
Wind_Direction
196 204 212 210 212 224 223 223 225 227 217 218 232 242 242 237 232 236 235 233 232 234 235 226 217 210 204 202 200 199 198 197 194 193 195 198 202 204 206 209 210 208 208 206
203 219 220 216 215 220 224 227 230 231 220 230 244 248 246 242 236 235 235 234 234 234 230 222 213 205 202 201 200 200 199 196 195 196 197 200 201 205 207 207 211 210 209 206
213 218 214 214 214 216 222 225 227 227 215 226 254 255 243 238 236 235 236 237 236 233 231 224 213 207 202 203 201 200 200 198 197 196 194 192 194 199 202 205 208 210 209 206
223 223 211 212 215 215 224 224 226 225 227 230 225 256 243 230 230 230 231 231 232 231 230 227 221 212 206 205 201 201 199 198 196 194 195 192 195 200 205 204 205 206 207 206
216 211 209 213 216 213 222 216 220 225 233 244 229 246 253 227 232 230 227 227 227 228 227 224 221 216 210 202 197 198 197 197 196 196 198 199 204 207 205 202 203 204 204 205
229 225 217 219 217 212 200 190 207 224 230 240 230 232 255 227 229 228 224 222 223 223 222 221 218 212 205 195 190 191 193 195 194 196 199 202 205 206 201 199 200 202 201 203
223 223 217 215 203 200 196 186 193 203 215 233 218 226 246 237 228 228 224 221 219 217 215 212 208 203 198 191 187 187 188 191 192 195 200 203 206 206 205 202 203 200 200 201
211 215 204 204 205 197 200 200 204 208 217 222 206 227 240 231 229 232 234 228 221 217 213 210 207 201 195 191 187 186 187 188 189 193 198 201 203 205 207 207 204 202 203 203
210 217 196 203 206 200 200 211 221 234 238 229 217 232 247 232 229 226 224 221 218 214 210 207 202 198 193 188 187 186 185 186 188 192 195 198 200 202 205 205 205 205 204 201
217 214 199 195 197 212 212 199 203 213 214 228 230 231 231 209 212 211 211 212 213 210 204 200 195 190 188 186 184 184 185 185 186 188 191 193 196 199 201 201 202 202 200 194
219 212 197 191 200 197 196 199 203 208 221 225 235 234 219 215 207 205 208 208 208 204 200 195 186 181 177 175 177 181 182 183 184 186 187 189 192 195 198 200 201 200 197 193
224 221 212 209 215 214 205 202 198 203 208 222 238 240 176 217 219 215 212 208 205 202 194 184 176 172 172 175 176 179 181 182 183 183 185 187 188 190 193 197 198 195 193 192
206 219 200 197 205 208 211 207 208 215 220 220 224 232 186 215 226 224 221 208 197 192 187 180 178 179 179 178 177 177 179 179 178 179 181 183 185 187 191 192 192 190 189 188
219 223 227 219 216 198 206 209 208 208 218 224 228 235 225 221 230 229 221 210 199 194 192 188 186 185 182 181 179 177 176 176 175 177 180 183 185 186 187 187 186 186 185 184
228 236 243 257 257 221 220 214 212 215 220 226 232 234 234 229 229 230 221 210 205 202 200 198 193 188 184 182 181 178 176 174 174 176 180 183 181 181 181 181 181 181 181 181
263 255 251 251 243 229 234 223 219 221 225 231 239 241 240 243 235 230 225 217 212 211 208 204 198 193 190 187 182 178 178 176 175 177 180 177 176 176 177 177 176 175 177 177
228 243 246 245 242 241 237 222 217 219 223 226 233 237 235 238 232 229 230 230 226 223 214 208 204 201 197 191 184 182 178 173 175 177 176 175 175 175 175 172 172 175 176 175
213 219 235 250 222 228 234 224 219 224 228 228 235 240 236 237 238 237 233 231 229 224 220 216 210 204 198 188 182 176 171 173 175 176 176 176 175 173 171 171 174 174 173 174
211 206 218 229 235 250 249 227 214 218 231 229 234 241 244 246 250 245 236 233 234 233 229 219 210 201 191 184 176 169 171 173 176 179 179 177 175 172 171 173 172 170 169 170
204 208 215 223 234 235 240 218 224 214 239 237 234 237 239 231 236 242 234 232 235 236 231 218 204 193 187 181 172 172 175 178 183 182 178 174 173 172 172 171 166 163 164 163
190 201 214 224 235 255 276 250 172 197 235 240 229 235 233 227 235 255 246 236 234 231 224 210 199 196 190 177 173 178 179 185 180 170 166 167 169 169 166 161 159 156 154 153
201 201 208 214 226 240 221 168 189 236 306 292 250 246 244 242 249 254 249 241 230 221 212 202 197 194 184 178 176 179 183 175 163 160 160 161 161 156 156 154 153 154 153 153
217 216 219 218 232 265 214 227 255 292 293 292 283 272 263 261 259 256 248 241 233 223 209 201 193 183 180 182 182 179 174 163 158 157 158 155 152 152 156 155 153 155 158 159
232 229 238 247 252 262 265 261 265 276 286 294 295 284 269 263 263 257 248 241 233 220 207 194 184 180 180 180 181 173 163 159 156 156 155 152 150 149 151 152 156 159 163 164
242 229 240 252 264 275 266 263 275 288 290 289 291 288 274 268 266 258 248 238 228 215 201 191 187 183 178 171 167 164 162 158 155 153 151 150 148 146 146 145 150 159 164 170
236 232 237 248 252 257 272 280 286 288 289 290 292 291 283 269 264 259 249 236 222 208 193 186 184 177 171 166 162 163 163 160 154 152 153 151 148 146 145 141 125 95 120 128
Height
1466 1468 1463 1460 1462 1461 1462 1464 1465 1465 1468 1472 1469 1466 1465 1468 1470 1470 1470 1471 1472 1474 1476 1478 1479 1481 1484 1487 1490 1493 1496 1500 1504 1507 1510 1513 1515 1518 1521 1524 1526 1529 1531 1532
1463 1458 1453 1456 1460 1462 1463 1464 1464 1464 1467 1469 1465 1462 1459 1461 1462 1464 1465 1465 1467 1468 1470 1472 1473 1475 1478 1480 1484 1487 1490 1494 1497 1500 1504 1508 1511 1514 1517 1519 1522 1524 1526 1528
1449 1447 1451 1455 1457 1460 1460 1460 1462 1464 1466 1468 1467 1459 1453 1452 1455 1457 1458 1459 1460 1462 1464 1466 1468 1469 1472 1474 1477 1480 1484 1487 1491 1495 1499 1503 1506 1509 1511 1513 1516 1519 1521 1524
1445 1445 1448 1451 1452 1454 1456 1456 1459 1463 1466 1463 1465 1457 1442 1442 1446 1448 1450 1452 1453 1455 1458 1459 1462 1464 1465 1468 1472 1475 1478 1482 1485 1489 1492 1495 1498 1501 1504 1507 1510 1513 1516 1518
1438 1439 1442 1444 1444 1449 1451 1454 1458 1461 1462 1462 1460 1459 1438 1437 1438 1437 1440 1443 1445 1448 1450 1453 1455 1457 1460 1462 1465 1469 1472 1475 1479 1482 1486 1489 1493 1496 1500 1503 1505 1508 1511 1513
1434 1436 1436 1437 1441 1446 1451 1456 1460 1461 1462 1463 1451 1454 1436 1428 1426 1427 1431 1435 1438 1441 1444 1446 1448 1451 1454 1456 1459 1462 1466 1469 1473 1476 1480 1483 1487 1491 1494 1496 1499 1502 1505 1507
1432 1432 1433 1435 1438 1444 1447 1453 1461 1462 1461 1448 1441 1444 1427 1417 1419 1422 1425 1428 1432 1435 1437 1440 1442 1445 1447 1450 1453 1457 1460 1463 1467 1471 1474 1478 1481 1485 1488 1491 1494 1496 1499 1501
1424 1424 1425 1428 1428 1432 1436 1440 1443 1444 1440 1433 1440 1433 1416 1414 1417 1419 1422 1424 1427 1429 1431 1434 1436 1439 1442 1445 1448 1451 1454 1458 1462 1465 1469 1472 1476 1479 1482 1486 1488 1491 1493 1496
1419 1417 1418 1422 1423 1426 1431 1433 1431 1435 1433 1429 1426 1419 1413 1412 1413 1415 1417 1420 1421 1424 1426 1428 1431 1433 1436 1439 1442 1446 1450 1453 1457 1460 1464 1467 1470 1474 1477 1480 1483 1486 1488 1491
1417 1418 1416 1419 1423 1423 1423 1426 1434 1437 1435 1429 1416 1413 1406 1403 1404 1407 1411 1414 1416 1419 1421 1423 1426 1428 1431 1435 1438 1442 1445 1449 1452 1456 1459 1462 1465 1469 1472 1475 1478 1481 1483 1486
1418 1417 1416 1416 1415 1415 1422 1426 1427 1427 1423 1419 1414 1403 1393 1394 1396 1400 1404 1407 1411 1414 1416 1419 1421 1424 1427 1430 1434 1437 1441 1444 1448 1451 1454 1458 1461 1464 1467 1470 1473 1476 1479 1481
1418 1415 1413 1410 1409 1410 1411 1413 1418 1422 1420 1413 1405 1399 1391 1393 1395 1398 1400 1404 1408 1411 1413 1415 1418 1421 1423 1426 1430 1433 1436 1440 1443 1447 1450 1453 1457 1460 1462 1465 1468 1471 1474 1477
1419 1418 1412 1411 1413 1413 1411 1410 1412 1413 1412 1410 1407 1397 1390 1393 1395 1397 1399 1401 1404 1407 1410 1412 1415 1418 1420 1423 1426 1429 1432 1436 1439 1443 1446 1449 1452 1455 1458 1461 1464 1467 1469 1472
1418 1416 1410 1402 1398 1404 1406 1407 1407 1409 1409 1404 1398 1390 1388 1391 1393 1395 1397 1399 1401 1404 1406 1409 1411 1414 1417 1420 1423 1426 1429 1432 1436 1439 1442 1445 1448 1451 1454 1457 1460 1462 1465 1467
1416 1412 1408 1403 1400 1401 1401 1401 1402 1401 1397 1396 1390 1389 1385 1387 1391 1393 1395 1397 1399 1400 1402 1405 1407 1410 1413 1416 1419 1422 1426 1429 1432 1435 1438 1441 1444 1447 1450 1453 1455 1458 1461 1463
1416 1413 1409 1402 1398 1397 1396 1393 1394 1393 1391 1389 1387 1385 1382 1386 1390 1392 1393 1394 1395 1396 1398 1401 1404 1406 1409 1412 1415 1419 1422 1425 1428 1431 1434 1437 1440 1443 1446 1448 1451 1454 1456 1459
1414 1414 1410 1400 1397 1397 1390 1381 1382 1383 1381 1381 1381 1378 1381 1385 1387 1388 1389 1390 1391 1392 1394 1396 1399 1402 1405 1408 1412 1415 1418 1421 1424 1427 1430 1433 1436 1439 1441 1444 1447 1449 1452 1454
1410 1411 1410 1402 1398 1394 1371 1369 1371 1372 1371 1374 1374 1374 1377 1379 1382 1383 1385 1386 1387 1388 1390 1392 1395 1398 1401 1404 1408 1411 1414 1417 1420 1423 1426 1429 1432 1434 1437 1440 1443 1445 1448 1450
1403 1406 1405 1400 1390 1377 1368 1368 1367 1369 1367 1368 1370 1372 1375 1377 1378 1377 1379 1380 1382 1384 1386 1388 1390 1393 1396 1400 1403 1406 1410 1413 1416 1418 1421 1424 1427 1430 1433 1435 1438 1441 1444 1446
1397 1399 1401 1396 1388 1374 1359 1362 1364 1367 1365 1364 1366 1368 1370 1373 1374 1368 1371 1374 1376 1378 1381 1383 1385 1388 1391 1394 1398 1402 1405 1408 1411 1414 1417 1420 1423 1426 1429 1431 1434 1437 1440 1443
1393 1394 1394 1390 1383 1367 1361 1362 1362 1368 1361 1359 1361 1362 1364 1366 1364 1364 1366 1368 1369 1372 1374 1377 1379 1382 1385 1389 1393 1396 1400 1403 1407 1410 1413 1416 1419 1422 1425 1428 1431 1434 1436 1439
1381 1381 1382 1382 1379 1369 1362 1363 1362 1359 1358 1358 1358 1359 1359 1359 1359 1360 1361 1362 1363 1365 1367 1370 1373 1376 1379 1383 1387 1391 1395 1399 1402 1405 1408 1411 1415 1418 1421 1424 1427 1430 1433 1435
1375 1373 1371 1370 1364 1359 1360 1360 1358 1358 1358 1357 1356 1356 1356 1355 1354 1354 1355 1356 1357 1359 1361 1364 1367 1370 1374 1378 1382 1386 1390 1394 1397 1400 1404 1407 1411 1414 1418 1421 1423 1426 1429 1431
1370 1371 1370 1366 1358 1357 1357 1356 1356 1356 1356 1354 1353 1352 1351 1350 1349 1349 1349 1350 1351 1353 1355 1357 1361 1364 1368 1372 1377 1381 1385 1389 1392 1396 1399 1403 1406 1410 1414 1418 1420 1423 1425 1427
1365 1366 1364 1360 1357 1356 1353 1352 1352 1352 1352 1350 1349 1348 1346 1345 1344 1344 1343 1344 1345 1346 1349 1352 1355 1359 1363 1367 1371 1376 1380 1384 1387 1391 1395 1399 1403 1407 1410 1414 1417 1420 1422 1424
1359 1359 1358 1352 1351 1352 1349 1349 1349 1348 1347 1346 1344 1341 1340 1340 1338 1338 1338 1338 1339 1341 1343 1347 1350 1354 1358 1362 1366 1371 1375 1379 1383 1387 1391 1395 1399 1403 1407 1410 1413 1416 1419 1421